User: anonymous   Login
Location: Unspecified
(0.0000°N, 0.0000°E)
Time: 06:17:26
(UTC+00:00)
Language:

SIRIUS-1 - Orbit

View from above orbital plane
View from above orbital plane
View from above satellite
View from above satellite

Ground track
Ground track

The orbit is defined by the following mean orbital elements,

1 26390U          26145.29706307 +.00000000 +00000-0 +00000-0 0 00005
2 26390  59.3827 160.3741 0003887 300.4695 236.9904  1.57877313    06
Epoch (UTC): 25 May 2026 07:07:46
Eccentricity: 0.0003887
inclination: 59.3827°
perigee height: 24764 km
apogee height: 24789 km
right ascension of ascending node: 160.3741°
argument of perigee: 300.4695°
revolutions per day: 1.57877313
mean anomaly at epoch: 236.9904°

The dashed part of the orbit path shows where the satellite is in the earth's shadow,  

DLR